Miscellaneous Local Product
Issued by NWS Hastings, NE

Home | Current Version | Previous Version | Graphics & Text | Print | Product List | Glossary On
Versions: 1 2 3 4 5 6 7 8 9 10 11 12 13 14 15 16 17 18 19 20 21 22 23 24 25 26 27 28 29 30 31 32 33 34 35 36 37 38 39 40 41 42 43 44 45 46 47 48 49 50
000
AXUS43 KGID 250302
MISGRI

GID CWA HOURLY WEATHER ROUNDUP
NATIONAL WEATHER SERVICE HASTINGS NE
1000 PM CDT TUE MAY 24 2016

NOTE: "FAIR" INDICATES FEW OR NO CLOUDS BELOW 12,000 FEET WITH NO
SIGNIFICANT WEATHER AND/OR OBSTRUCTIONS TO VISIBILITY.

...SOUTH CENTRAL NEBRASKA...

CITY           SKY/WX    TMP DP  RH WIND       PRES   REMARKS
GRAND ISLAND   CLOUDY    72  60  66 SE10      29.83S
HASTINGS       CLOUDY    71  60  68 SE13      29.82S
KEARNEY        CLOUDY    72  59  64 SE14      29.80F
ORD            CLOUDY    70  59  68 SE6       29.79F
YORK           MOCLDY    72  64  78 SE9       29.84F
AURORA         MOCLDY    73  62  68 SE10      29.83F
LEXINGTON      CLOUDY    70  60  70 E8        29.78F
HOLDREGE       CLOUDY    70  60  70 E10       29.78F
HEBRON         CLOUDY    72  63  71 SE6       29.85R

...NEBRASKA PANHANDLE...

CITY           SKY/WX    TMP DP  RH WIND       PRES   REMARKS
CHADRON        CLOUDY    54 N/A N/A E16       29.84F
ALLIANCE       LGT RAIN  52  49  89 N16       29.87S
SCOTTSBLUFF    CLOUDY    59  47  64 E15       29.84R
SIDNEY         CLOUDY    55  51  86 E8        29.81F

...WESTERN AND NORTH CENTRAL NEBRASKA...

CITY           SKY/WX    TMP DP  RH WIND       PRES   REMARKS
VALENTINE      CLOUDY    69  53  56 SE6       29.80R
AINSWORTH      MOCLDY    69  55  59 SE9       29.80R
ONEILL         CLOUDY    71  56  58 SE8       29.82R
BROKEN BOW     CLOUDY    68  59  73 SE8       29.80F
IMPERIAL       CLOUDY    66  55  67 N22G31    29.84R THUNDER
NORTH PLATTE   CLEAR     66  59  78 SE8       29.79R
MCCOOK         CLOUDY    69  62  78 SE9       29.76S

...EASTERN NEBRASKA...

CITY           SKY/WX    TMP DP  RH WIND       PRES   REMARKS
NORFOLK        CLEAR     69  56  62 SE7       29.84S
SO SIOUX CITY  CLEAR     70  64  81 SE8       29.85R
TEKAMAH        CLEAR     69  60  73 SE7       29.84R
COLUMBUS       MOCLDY    73  55  53 SE12      29.85F
ALBION         CLOUDY    71  58  63 SE10      29.82F
OMAHA EPPLEY   PTCLDY    72  60  66 SE6       29.85R
MILLARD        PTCLDY    73  61  64 SE5       29.85R
LINCOLN        CLOUDY    75  61  61 SE8       29.87R
NEBRASKA CITY  CLOUDY    72  63  72 SE8       29.87S
BEATRICE       CLOUDY    75  62  64 SE10      29.85S
FALLS CITY     CLOUDY    73  64  73 SE12      29.85S

...NORTHERN KANSAS...

CITY           SKY/WX    TMP DP  RH WIND       PRES   REMARKS
GOODLAND       CLEAR     65  56  72 SE20      29.77R
HILL CITY      CLOUDY    67  55  65 SE12      29.77S
NORTON         CLEAR     68  61  77 E5        29.78R
PHILLIPSBURG   CLEAR     70  63  78 CALM      29.78R
SMITH CENTER   PTCLDY    70  55  60 SE31G54   29.73F
BELOIT         CLOUDY    72  66  83 SW18G25   29.87R
HAYS           CLOUDY    59  52  77 SE22      29.78S
RUSSELL        LGT RAIN  62  57  83 E24       29.77F
CONCORDIA      LGT RAIN  71  67  87 NE3       29.84R
SALINA         TSTM      77  71  82 S15       29.86R
TOPEKA         PTCLDY    75  70  84 E7        29.85S



USA.gov is the U.S. government's official web portal to all federal, state and local government web resources and services.